This is the latest recevied weather packets stored in our database for station/object K7PMV-13. If no packets are shown the sender has not sent any weather packets the latest 10 day(s).
| Time | Temp. | Humidity | Pressure | Rain* | Wind** | Luminosity | Snow |
|---|---|---|---|---|---|---|---|
| 1777910052 | 23.33° C | 38% | 1008.2 hPa | 0 mm | - | 388 W/m² | - |
| 1777909720 | 23.33° C | 39% | 1008.3 hPa | 0 mm | - | 359 W/m² | - |
| 1777909405 | 23.33° C | 38% | 1008.4 hPa | 0 mm | - | 309 W/m² | - |
| 1777909088 | 23.33° C | 38% | 1008.5 hPa | 0 mm | - | 288 W/m² | - |
| 1777908761 | 23.33° C | 38% | 1008.3 hPa | 0 mm | - | 279 W/m² | - |
| 1777908446 | 22.78° C | 38% | 1008.1 hPa | 0 mm | - | 243 W/m² | - |
| 1777908129 | 22.78° C | 39% | 1008 hPa | 0 mm | - | 250 W/m² | - |
| 1777907801 | 22.78° C | 38% | 1007.9 hPa | 0 mm | - | 285 W/m² | - |
| 1777907479 | 22.78° C | 38% | 1008 hPa | 0 mm | - | 237 W/m² | - |
| 1777907165 | 22.78° C | 37% | 1007.8 hPa | 0 mm | - | 225 W/m² | - |
| 1777906843 | 22.78° C | 41% | 1007.7 hPa | 0 mm | - | 213 W/m² | - |
| 1777906526 | 22.22° C | 43% | 1007.7 hPa | 0 mm | - | 188 W/m² | - |
| 1777906208 | 22.22° C | 46% | 1007.7 hPa | 0 mm | - | 174 W/m² | - |
| 1777905883 | 22.22° C | 47% | 1007.7 hPa | 0 mm | - | 146 W/m² | - |
| 1777905568 | 21.67° C | 48% | 1007.6 hPa | 0 mm | - | 120 W/m² | - |
| 1777905236 | 21.67° C | 48% | 1007.7 hPa | 0 mm | - | 107 W/m² | - |
| 1777904922 | 21.67° C | 49% | 1007.7 hPa | 0 mm | - | 109 W/m² | - |
| 1777904606 | 21.67° C | 49% | 1007.5 hPa | 0 mm | - | 109 W/m² | - |
| 1777904291 | 21.67° C | 48% | 1007.6 hPa | 0 mm | - | 91 W/m² | - |
| 1777903976 | 21.67° C | 48% | 1007.3 hPa | 0 mm | - | 81 W/m² | - |
| 1777903658 | 21.67° C | 48% | 1007.3 hPa | 0 mm | - | 76 W/m² | - |
| 1777903343 | 21.67° C | 48% | 1007.3 hPa | 0 mm | - | 74 W/m² | - |
| 1777903025 | 21.67° C | 48% | 1007.4 hPa | 0 mm | - | 67 W/m² | - |
| 1777902702 | 21.11° C | 48% | 1007.4 hPa | 0 mm | - | 56 W/m² | - |
| 1777902381 | 21.11° C | 48% | 1007.4 hPa | 0 mm | - | 47 W/m² | - |
* Rain latest hour (hover to see other rain measurements)
** Current wind speed in m/s (hover to see current wind gust speed)